Location: Cheyres
(46.8153°N, 6.7877°E)
Time: 04:16:05
(UTC+00:00)

S3M - Pass Details

Date: 11 May 2021
Orbit: 948 x 1005 km, 83.0° (Epoch: 18 June)

Event Time Altitude Azimuth Distance (km) Brightness Sun altitude
Rises 19:34:44 0° 181° (S) 3,717 6.7 -6.4°
Reaches altitude 10° 19:37:16 10° 180° (S) 2,769 6.0 -6.8°
Maximum altitude 19:43:37 76° 95° (E) 1,030 4.1 -7.7°
Drops below altitude 10° 19:49:57 10° 12° (NNE) 2,759 6.7 -8.5°
Sets 19:52:28 0° 11° (N) 3,704 7.4 -8.9°
